Regional Weather Roundup
Issued by NWS State College, PA

Home | Current Version | Previous Version | Text Only | Print | Product List | Glossary Off
Versions: 1 2 3 4 5 6 7 8 9 10 11 12 13 14 15 16 17 18 19 20 21 22 23 24 25 26 27 28 29 30 31 32 33 34 35 36 37 38 39 40 41 42 43 44 45 46 47 48 49 50

000
ASUS41 KCTP 251410
RWRCTP

REGIONAL WEATHER ROUNDUP
NATIONAL WEATHER SERVICE STATE COLLEGE PA
900 AM EST THU DEC 25 2014

Note: "fair" indicates few or no clouds below 12,000 feet with no
significant weather and/or obstructions to visibility.

* = STATION THAT DOES NOT REPORT PRECIPITATION /E.G. RAIN...SNOW...ETC/
    THUNDER OR FOG.

PAZ002>004-007>009-013>016-020>023-029>032-251500-
WESTERN PENNSYLVANIA

CITY           SKY/WX    TMP DP  RH WIND       PRES   REMARKS
ERIE           CLOUDY    39  32  76 W21G32    29.79R
MEADVILLE      CLOUDY    36  31  82 W15       29.80R
FRANKLIN*      CLOUDY    36  28  75 W14G22    29.82R
NEW CASTLE       N/A     37  33  85 SW10G18   29.88R
BEAVER COUNTY  NOT AVBL
BUTLER*        CLOUDY    37  30  75 SW16G23   29.87R
PITTSBURGH INT CLOUDY    39  33  79 W10       29.87R
PITTSBURGH     CLOUDY    38  30  73 W14       29.87R
INDIANA*       CLOUDY    37  36  93 W13G22    29.87R
LATROBE        NOT AVBL
WASHINGTON CO* NOT AVBL
$$

PAZ004>006-010>012-017>019-024>028-033>037-041-042-045-046-049>053-251500-
CENTRAL PENNSYLVANIA

CITY           SKY/WX    TMP DP  RH WIND       PRES   REMARKS
BRADFORD       LGT SNOW  34  30  85 W9G25     29.72R FOG
DUBOIS         CLOUDY    35  33  92 W18G26    29.77R
CLEARFIELD     LGT RAIN  38  31  76 W20G29    29.78R
JOHNSTOWN      CLOUDY    35  30  82 W30G39    29.78R
ALTOONA        CLOUDY    40  31  70 W22G31    29.80R
STATE COLLEGE  CLOUDY    39  32  75 W17       29.78R
WILLIAMSPORT   CLOUDY    43  32  65 W12       29.74R
SELINSGROVE    PTSUNNY   45  32  60 VRB5      29.78R
FT INDIANTOWN  MOSUNNY   46  32  59 W9        29.79R
CAPITAL CITY   CLOUDY    46  33  60 W9        29.80R
HARRISBURG     MOSUNNY   46  32  58 W14G21    29.79R
YORK           SUNNY     45  31  58 W12G29    29.80R
$$

PAZ038>040-043-044-047-048-054-055-060>062-067>071-251500-
EASTERN PENNSYLVANIA

CITY           SKY/WX    TMP DP  RH WIND       PRES   REMARKS
SCRANTON       CLOUDY    43  32  65 W14       29.72R
MOUNT POCONO   PTSUNNY   38  27  64 W22G36    29.65R
ALLENTOWN      CLOUDY    46  32  58 W17G26    29.73R
QUAKERTOWN*    NOT AVBL
READING        PTSUNNY   46  33  60 W6        29.76R
LANCASTER      PTSUNNY   45  35  68 W8        29.77R
COATESVILLE    CLOUDY    46  37  71 W14G21    29.77R
POTTSTOWN      CLOUDY    46  35  65 W9G18     29.77R
BLUE BELL      CLOUDY    48  39  71 W12G21    29.75R
DOYLESTOWN     CLOUDY    46  32  58 W15G26    29.73R
WILLOW GROVE   NOT AVBL
NORTH PHILA    CLOUDY    50  38  63 W14G21    29.77R
PHILADELPHIA   CLOUDY    50  39  66 W13       29.78R
$$



USA.gov is the U.S. government's official web portal to all federal, state and local government web resources and services.